TimeEST,TemperatureF,Dew PointF,Humidity,Sea Level PressureIn,VisibilityMPH,Wind Direction,Wind SpeedMPH,Gust SpeedMPH,PrecipitationIn,Events,Conditions,WindDirDegrees,DateUTC
12:54 AM,46.9,37.9,71,29.78,10.0,WNW,10.4,18.4,N/A,,Overcast,290,2012-12-11 05:54:00
1:54 AM,46.9,36.0,66,29.81,10.0,WNW,9.2,-,N/A,,Mostly Cloudy,290,2012-12-11 06:54:00
2:54 AM,46.0,34.0,63,29.82,10.0,WNW,12.7,-,N/A,,Mostly Cloudy,290,2012-12-11 07:54:00
3:54 AM,44.1,32.0,63,29.85,10.0,WNW,12.7,-,N/A,,Scattered Clouds,290,2012-12-11 08:54:00
4:54 AM,43.0,32.0,65,29.86,10.0,WNW,10.4,-,N/A,,Partly Cloudy,300,2012-12-11 09:54:00
5:54 AM,42.1,32.0,67,29.89,10.0,WNW,15.0,18.4,N/A,,Partly Cloudy,300,2012-12-11 10:54:00
6:54 AM,41.0,30.9,67,29.92,10.0,West,9.2,-,N/A,,Partly Cloudy,270,2012-12-11 11:54:00
7:54 AM,41.0,30.0,65,29.96,10.0,NW,10.4,-,N/A,,Partly Cloudy,310,2012-12-11 12:54:00
8:54 AM,45.0,30.9,58,29.97,10.0,NNW,11.5,-,N/A,,Partly Cloudy,330,2012-12-11 13:54:00
9:54 AM,45.0,30.0,56,30.00,10.0,WNW,10.4,-,N/A,,Partly Cloudy,290,2012-12-11 14:54:00
10:54 AM,46.9,28.9,50,30.02,10.0,WNW,10.4,20.7,N/A,,Partly Cloudy,290,2012-12-11 15:54:00
11:54 AM,46.9,28.9,50,30.03,10.0,West,13.8,21.9,N/A,,Scattered Clouds,280,2012-12-11 16:54:00
12:54 PM,46.9,28.9,50,30.03,10.0,WNW,12.7,20.7,N/A,,Scattered Clouds,290,2012-12-11 17:54:00
1:54 PM,45.0,28.0,52,30.04,10.0,NW,10.4,-,N/A,,Partly Cloudy,310,2012-12-11 18:54:00
2:54 PM,45.0,27.0,49,30.06,10.0,WNW,13.8,-,N/A,,Partly Cloudy,300,2012-12-11 19:54:00
3:54 PM,43.0,26.1,51,30.09,10.0,WNW,11.5,-,N/A,,Partly Cloudy,290,2012-12-11 20:54:00
4:54 PM,41.0,26.1,55,30.12,10.0,NW,8.1,-,N/A,,Partly Cloudy,310,2012-12-11 21:54:00
5:54 PM,39.0,26.1,60,30.15,10.0,NW,10.4,-,N/A,,Partly Cloudy,310,2012-12-11 22:54:00
6:54 PM,37.9,25.0,60,30.17,10.0,NW,8.1,-,N/A,,Partly Cloudy,310,2012-12-11 23:54:00
7:54 PM,37.0,25.0,62,30.19,10.0,NNW,6.9,-,N/A,,Partly Cloudy,340,2012-12-12 00:54:00
8:54 PM,36.0,24.1,62,30.20,10.0,NW,3.5,-,N/A,,Clear,320,2012-12-12 01:54:00
9:54 PM,36.0,24.1,62,30.21,10.0,NW,3.5,-,N/A,,Clear,320,2012-12-12 02:54:00
10:54 PM,34.0,23.0,64,30.22,10.0,NW,3.5,-,N/A,,Clear,310,2012-12-12 03:54:00
11:54 PM,34.0,24.1,67,30.24,10.0,WNW,3.5,-,N/A,,Clear,290,2012-12-12 04:54:00